Location: Zlin
(49.2330°N, 17.6670°E)
Time: 03:58:48
(UTC+01:00)

ISS - Visible Passes

Search period start: 23 December 2014 00:00
Search period end: 02 January 2015 00:00
Orbit: 404 x 414 km, 51.6° (Epoch: 22 December)

Date Brightness Start Highest point End Pass type
(mag) Time Alt. Az. Time Alt. Az. Time Alt. Az.
23 Dec -3.1 17:38:00 10° WNW 17:41:17 67° SSW 17:42:48 29° SE visible
23 Dec 0.3 19:15:28 10° WSW 19:15:34 10° WSW 19:15:34 10° WSW visible
24 Dec -3.3 16:47:07 10° WNW 16:50:25 88° NNE 16:53:43 10° ESE visible
24 Dec -1.2 18:24:03 10° W 18:26:42 23° SW 18:27:19 22° SSW visible
25 Dec -1.8 17:32:54 10° W 17:35:56 35° SSW 17:38:58 10° SE visible
26 Dec -2.5 16:41:51 10° WNW 16:45:05 54° SSW 16:48:17 10° SE visible
26 Dec -0.1 18:19:56 10° WSW 18:21:03 11° SW 18:22:10 10° SSW visible
27 Dec -0.4 17:27:57 10° W 17:30:18 18° SW 17:32:38 10° S visible
28 Dec -1.0 16:36:33 10° W 16:39:26 28° SW 16:42:18 10° SSE visible
